Regional Weather Roundup
Issued by NWS

Home | Current Version | Previous Version | Text Only | Print | Product List | Glossary Off
Versions: 1 2 3 4 5 6 7 8 9 10 11 12 13 14 15 16 17 18 19 20 21 22 23 24 25 26 27 28 29 30 31 32 33 34 35 36 37 38 39 40 41 42 43 44 45 46 47 48 49 50

000
ASUS45 KSLC 221610
RWRUT

UTAH REGIONAL WEATHER ROUNDUP
NATIONAL WEATHER SERVICE SALT LAKE CITY UT
1000 AM MDT FRI MAY 22 2015

UTZ001>011-023>025-221700-

NORTHERN UTAH

CITY           SKY/WX    TMP DP  RH WIND       PRES   REMARKS
BRIGHAM CITY   CLOUDY    58  46  64 CALM      29.93S
HILL AFB       CLOUDY    57  45  64 E9        29.93R
LOGAN          SUNNY     53  46  77 NW5       29.93S
OGDEN          PTSUNNY   58  45  62 VRB6      29.92R
PROVO AIRPORT  PTSUNNY   55  43  62 CALM      29.94S
SALT LAKE CITY CLOUDY    57  43  59 SE7       29.91S
VERNAL         CLOUDY    53  45  74 S5        29.99S
WENDOVER       CLOUDY    59  45  58 E6        29.93S
HEBER CITY     CLOUDY    43  41  93 CALM      29.99S
WEST JORDAN    MOSUNNY   57  46  67 SE8       29.93S

$$

UTZ012>022-026-027-221700-

SOUTHERN/CENTRAL UTAH

CITY           SKY/WX    TMP DP  RH WIND       PRES   REMARKS
BLANDING       SUNNY     57  35  43 S9        30.09S
BRYCE CANYON   SUNNY     51  27  39 SE10      30.02S
CEDAR CITY     MOSUNNY   59  27  29 VRB5      29.93S
DELTA          MOSUNNY   60  39  45 NE3       29.93S
HANKSVILLE     SUNNY     64  34  32 SE5       29.93S
MILFORD        MOSUNNY   61  31  32 S6        29.91S
MOAB/CYNLANDS  SUNNY     63  42  46 SE10G20   29.92F
PRICE          PTSUNNY   52  38  58 CALM      29.98S
ST GEORGE      CLOUDY    64  28  25 W3        29.90S
KANAB          MOSUNNY   61  30  31 S8        29.99R

$$

REGIONAL REPORTS     COLORADO/ARIZONA

CITY           SKY/WX    TMP DP  RH WIND       PRES   REMARKS
CRAIG, CO      LGT RAIN  46  41  82 SW10      30.05R
GRAND JUNCTION PTSUNNY   56  46  69 SE8       29.97F
RIFLE          CLOUDY    50  43  77 CALM      30.04R
MONTROSE       SUNNY     57  42  57 N7        30.03F
CORTEZ         SUNNY     60  39  45 SE14G22   30.03F
PAGE, AZ       NOT AVBL
GRAND CANYON   PTSUNNY   52  35  52 S8        30.02S
KINGMAN        CLOUDY    63  29  27 SW13      29.91R
FLAGSTAFF      PTSUNNY   51  32  48 S12       30.04S

$$

REGIONAL REPORTS    NEVADA/IDAHO/WYOMING

CITY           SKY/WX    TMP DP  RH WIND       PRES   REMARKS
LAS VEGAS, NV  PTSUNNY   65  40  39 S10       29.83R
ELY            PTSUNNY   49  37  63 N7        29.97F
ELKO           CLOUDY    53  44  71 SW3       29.94S
POCATELLO, ID  PTSUNNY   55  49  80 VRB3      29.93S
BURLEY         PTSUNNY   56  49  77 W7        29.92R
EVANSTON, WY   PTSUNNY   45  39  79 E3        30.00S
ROCK SPRINGS   CLOUDY    48  40  73 E6        30.00S
KEMMERER       CLOUDY    46  39  76 CALM      30.01S

$$



USA.gov is the U.S. government's official web portal to all federal, state and local government web resources and services.